"Pseudo-MPEC" for P115YGa

Created 2020 Sep 17 0:07:21 UT using Find_Orb

Click here for an explanation of pseudo-MPECs

 
 Astrometry: 
     P115YGa  C2020 09 14`TjnM\0uBSN$XMF[,QD8XENj5RMC9#Astrometry)HmxO*b%LoSPF51
     P115YGa  C2020 09 144f$4G0fFHDkvh(o$vsax@9'J,wK:M9Z+([;H'=FMm4-P]1Vs$wf+F51
     P115YGa  C2020 09 14!Blxn`La@1i!Mk]D708%=Bc)HsVJBeLeWJ3qPN7bmi/*3!:%1!inF51
     P115YGa  C2020 09 14I=$)gGo9fLSxn'i0y\ycfgdZFDFH4:K+?Ur@J2`P*mNRtcNT7u)UF51
     P115YGa  C2020 09 15/PyURgJ#rCXk=\WW3;J;mD3VrBsredacted;c=clickV`r68_`p2F51
     P115YGa  C2020 09 15]NWTeh1x)[mvY'SRIo@\4FC`\5yv+134hgyVxQ93D6mKCyN#nn_\F51
     P115YGa  C2020 09 15o\B+rB(#-o7v]j,5AFIf6pkhereYo@\=huT72vC*r%atSVWCGeJQF51
     P115YGa  C2020 09 16.15447 21 04 55.35 -15 56 54.2    ~9G47 21.4 GVNEOCPV06
     P115YGa  C2020 09 16.15610 21 04 56.09 -15 56 59.4    ~9G47 20.9 GVNEOCPV06
     P115YGa  C2020 09 16.15772 21 04 56.85 -15 57 06.4    ~9G47       VNEOCPV06
     P115YGa  C2020 09 16.15935 21 04 57.55 -15 57 09.8    ~9G47 20.8 GVNEOCPV06
     P115YGa  C2020 09 16R@veip!,9Q`Pc7smcR.CMaS^+p+JfU!?OQ^rH`Ya7?k0?GNqUqDqF51
     P115YGa  C2020 09 16K)uhLax'ZMX?FZY%AJxg$c,%7#4bH+g+absforg$qH8E[WE;j$7:F51
     P115YGa  C2020 09 16V$r?0w032M5q:@YW:F[1Is0*+/EOexplanation36Dj:c$nNl!'wF51

Station data:
(F51) Pan-STARRS 1, Haleakala  (N20.707235 W156.255910)  US/Hawaii.
   Observers N. Primak, A. Schultz, S. Watters, J. Thiel, T. Goggia. Measurer
   PS1 Science Consortium. 1.8-m Ritchey-Chrétien + CCD.
(V06) Catalina Sky Survey-Kuiper  (N32.416847 W110.732550)  US/Arizona.
   Observers T. A. Pruyne, B. M. Africano, E. J. Christensen, G. A. Farneth,
   D. C. Fuls, A. R. Gibbs, A. D. Grauer, H. Gröller, J. A. Johnson, R. A.
   Kowalski, S. M. Larson, G. J. Leonard, D. Rankin, R. L. Seaman, F. C.
   Shelly. 1.55-m reflector + CCD.

Orbital elements:  P115YGa
   Perihelion 2020 Aug 26.943271 +/- 0.0718 TT = 22:38:18 (JD 2459088.443271)
Epoch 2020 Sep 16.0 TT = JDT 2459108.5   Earth MOID: 0.0779   AutoNEOCP
M   9.57701948 +/- 0.07             (J2000 ecliptic)
n   0.47749657 +/- 0.00334          Peri.  159.11379 +/- 0.07
a   1.62114753 +/- 0.00756          Node   170.22425 +/- 0.022
e   0.3354020 +/- 0.00281           Incl.    8.33098 +/- 0.049
P   2.06/753.92d           H 24.5   G  0.15   U  8.9  
q 1.07741134 +/- 0.000473    Q 2.16488372 +/- 0.0147
From 14 observations 2020 Sept. 14-16; mean residual 0".35
Residuals in arcseconds: 
200914 F51  .28-  .04+    200915 F51  .24+  .02-    200916 V06  .03+  .48+    
200914 F51  .11+  .06-    200915 F51  .18+  .03-    200916 F51  .23-  .04-    
200914 F51  .11+  .02-    200916 V06  .21-  .32+    200916 F51  .36-  .07+    
200914 F51  .09+  .02-    200916 V06  .06-  .39+    200916 F51  .38+  .08+    
200915 F51  .49-  .23+    200916 V06  .45+  1.4-    

Ephemerides (geocentric):
Date (UTC) HH   RA              Dec         delta   r     elong  mag " sig PA
---- -- -- --  -------------   -----------  ------ ------ -----  --- ---- ---
2020 09 17 00  21 11 34.476   -16 40 00.81  .11393 1.0960 141.0 21.5 .423  34
2020 09 17 01  21 11 54.129   -16 42 07.80  .11400 1.0961 141.0 21.5 .429  35
2020 09 17 02  21 12 13.774   -16 44 14.49  .11407 1.0962 141.1 21.5 .436  36
2020 09 17 03  21 12 33.411   -16 46 20.85  .11414 1.0963 141.1 21.5 .444  37
2020 09 17 04  21 12 53.040   -16 48 26.91  .11421 1.0963 141.1 21.5 .451  38
2020 09 17 05  21 13 12.660   -16 50 32.65  .11428 1.0964 141.1 21.5 .459  39
2020 09 17 06  21 13 32.273   -16 52 38.07  .11435 1.0965 141.1 21.5 .467  40
2020 09 17 07  21 13 51.877   -16 54 43.18  .11442 1.0966 141.2 21.5 .476  41
2020 09 17 08  21 14 11.472   -16 56 47.97  .11449 1.0966 141.2 21.5 .484  42
2020 09 17 09  21 14 31.059   -16 58 52.45  .11457 1.0967 141.2 21.5 .493  42
2020 09 17 10  21 14 50.638   -17 00 56.61  .11464 1.0968 141.2 21.5 .502  43
2020 09 17 11  21 15 10.208   -17 03 00.45  .11471 1.0968 141.3 21.5 .512  44
2020 09 17 12  21 15 29.769   -17 05 03.98  .11478 1.0969 141.3 21.5 .521  45
2020 09 17 13  21 15 49.321   -17 07 07.18  .11486 1.0970 141.3 21.5 .531  46
2020 09 17 14  21 16 08.864   -17 09 10.07  .11493 1.0971 141.3 21.5 .541  47
2020 09 17 15  21 16 28.398   -17 11 12.64  .11501 1.0971 141.3 21.5 .551  47
2020 09 17 16  21 16 47.924   -17 13 14.89  .11508 1.0972 141.4 21.5 .562  48
2020 09 17 17  21 17 07.439   -17 15 16.82  .11516 1.0973 141.4 21.5 .573  49
2020 09 17 18  21 17 26.946   -17 17 18.43  .11523 1.0974 141.4 21.5 .584  50
2020 09 17 19  21 17 46.443   -17 19 19.71  .11531 1.0974 141.4 21.5 .595  50
2020 09 17 20  21 18 05.931   -17 21 20.68  .11538 1.0975 141.5 21.5 .607  51
2020 09 17 21  21 18 25.409   -17 23 21.33  .11546 1.0976 141.5 21.5 .618  52
2020 09 17 22  21 18 44.878   -17 25 21.65  .11553 1.0977 141.5 21.5 .630  52
2020 09 17 23  21 19 04.337   -17 27 21.65  .11561 1.0977 141.5 21.5 .643  53
2020 09 18 00  21 19 23.786   -17 29 21.33  .11569 1.0978 141.5 21.5 .655  53
2020 09 18 01  21 19 43.225   -17 31 20.68  .11576 1.0979 141.6 21.5 .668  54
2020 09 18 02  21 20 02.655   -17 33 19.71  .11584 1.0980 141.6 21.5 .681  55
2020 09 18 03  21 20 22.074   -17 35 18.42  .11592 1.0980 141.6 21.5 .694  55
2020 09 18 04  21 20 41.483   -17 37 16.80  .11600 1.0981 141.6 21.5 .707  56
2020 09 18 05  21 21 00.882   -17 39 14.86  .11608 1.0982 141.6 21.5 .721  56
2020 09 18 06  21 21 20.271   -17 41 12.59  .11616 1.0983 141.7 21.5 .734  57
2020 09 18 07  21 21 39.649   -17 43 10.00  .11623 1.0984 141.7 21.5 .748  57
2020 09 18 08  21 21 59.017   -17 45 07.08  .11631 1.0984 141.7 21.5 .762  58
2020 09 18 09  21 22 18.374   -17 47 03.84  .11639 1.0985 141.7 21.5 .777  58
2020 09 18 10  21 22 37.721   -17 49 00.27  .11647 1.0986 141.7 21.5 .791  58
2020 09 18 11  21 22 57.057   -17 50 56.37  .11655 1.0987 141.8 21.5 .806  59
2020 09 18 12  21 23 16.383   -17 52 52.15  .11663 1.0987 141.8 21.5 .821  59
2020 09 18 13  21 23 35.697   -17 54 47.60  .11671 1.0988 141.8 21.5 .836  60
2020 09 18 14  21 23 55.001   -17 56 42.72  .11680 1.0989 141.8 21.5 .852  60
2020 09 18 15  21 24 14.293   -17 58 37.52  .11688 1.0990 141.8 21.5 .867  60
2020 09 18 16  21 24 33.575   -18 00 31.98  .11696 1.0990 141.9 21.5 .883  61
2020 09 18 17  21 24 52.845   -18 02 26.12  .11704 1.0991 141.9 21.5 .899  61
2020 09 18 18  21 25 12.104   -18 04 19.93  .11712 1.0992 141.9 21.5 .915  62
2020 09 18 19  21 25 31.352   -18 06 13.42  .11720 1.0993 141.9 21.5 .931  62
2020 09 18 20  21 25 50.589   -18 08 06.57  .11729 1.0994 141.9 21.5 .948  62
2020 09 18 21  21 26 09.814   -18 09 59.40  .11737 1.0994 141.9 21.5 .964  63
2020 09 18 22  21 26 29.027   -18 11 51.89  .11745 1.0995 142.0 21.5 .981  63
2020 09 18 23  21 26 48.229   -18 13 44.06  .11754 1.0996 142.0 21.5 1.00  63